Powrót do katalogu

NOAA 16 DEB

AktywnySSO
NORAD 41063·DEBRIS·🇺🇸 United States

Wystrzelony Sep 21, 2000 z Vandenberg Space Force Base

Loading…

Następne Przeloty (najbliższe 24 godziny)

TLE

ŚwieżeSource: Space-Track

Epoka: Sep 14, 2026, 04:26 UTC

1 41063U 00055W   26257.18492389  .00001908  00000-0  82333-3 0  9990
2 41063  98.7476 338.5386 0021857 169.8755 190.2869 14.25546595557555

Śledź NOAA 16 DEB w czasie rzeczywistym z AllMySat

Download on the App Store